When you browse on this site, cookies collect data to enhance your experience and personalize the content and advertising you see.
Visit our Privacy Policy to learn more. By continuing to use the site, you agree to this use of cookies and data.
  • In Österreich
  • Länderverzeichnis
  • Für 7 Tage
  • Wassertemperatur
  • Satellitenkarten
  • Wetterkarte
  • News
  • Widgets
  • user-avatar
    Anmelden

    Stündliche Wetter Kazanky

    Heute, 10 Dezember, Montag

    Zeit Temperatur Niederschläge Wind Luftdruck Luftfeuchtigkeit
    00:00 +5°C° 0 mm 3 m/S 738 mmHg 80%
    01:00 +5°C° 0 mm 3 m/S 738 mmHg 79%
    02:00 +5°C° 0 mm 3 m/S 737 mmHg 79%
    03:00 +5°C° 0.2 mm 3 m/S 737 mmHg 79%
    04:00 +6°C° 0.2 mm 2 m/S 737 mmHg 78%
    05:00 +6°C° 0.2 mm 2 m/S 736 mmHg 77%
    06:00 +6°C° 0.3 mm 2 m/S 736 mmHg 78%
    07:00 +6°C° 0.3 mm 2 m/S 736 mmHg 79%
    08:00 +6°C° 0.3 mm 2 m/S 736 mmHg 80%
    09:00 +6°C° 0.3 mm 2 m/S 736 mmHg 81%
    10:00 +7°C° 0.3 mm 2 m/S 736 mmHg 81%
    11:00 +7°C° 0.3 mm 3 m/S 736 mmHg 81%
    12:00 +7°C° 0.2 mm 3 m/S 736 mmHg 83%
    13:00 +7°C° 0.2 mm 3 m/S 736 mmHg 86%
    14:00 +7°C° 0.2 mm 4 m/S 736 mmHg 88%
    15:00 +7°C° 0.1 mm 3 m/S 736 mmHg 90%
    16:00 +7°C° 0.1 mm 3 m/S 737 mmHg 92%
    17:00 +7°C° 0.1 mm 3 m/S 737 mmHg 94%
    18:00 +6°C° 0 mm 2 m/S 737 mmHg 95%
    19:00 +6°C° 0 mm 2 m/S 737 mmHg 95%
    20:00 +7°C° 0 mm 1 m/S 737 mmHg 95%
    21:00 +7°C° 0 mm 1 m/S 737 mmHg 95%
    22:00 +5°C° 0 mm 2 m/S 737 mmHg 95%
    23:00 +5°C° 0 mm 2 m/S 737 mmHg 94%

    Morgen, 11 Dezember, Dienstag

    Zeit Temperatur Niederschläge Wind Luftdruck Luftfeuchtigkeit
    00:00 +4°C° 0 mm 3 m/S 736 mmHg 94%
    01:00 +4°C° 0 mm 4 m/S 736 mmHg 94%
    02:00 +3°C° 0 mm 5 m/S 735 mmHg 94%
    03:00 +3°C° 0.4 mm 5 m/S 735 mmHg 95%
    04:00 +3°C° 0.4 mm 6 m/S 734 mmHg 95%
    05:00 +3°C° 0.4 mm 6 m/S 734 mmHg 95%
    06:00 +3°C° 1.6 mm 7 m/S 733 mmHg 95%
    07:00 +2°C° 1.6 mm 8 m/S 733 mmHg 94%
    08:00 +4°C° 1.6 mm 8 m/S 732 mmHg 94%
    09:00 +4°C° 0.9 mm 8 m/S 732 mmHg 94%
    10:00 +4°C° 0.9 mm 7 m/S 732 mmHg 94%
    11:00 +5°C° 0.9 mm 7 m/S 731 mmHg 93%
    12:00 +4°C° 1.4 mm 7 m/S 731 mmHg 94%
    13:00 +4°C° 1.4 mm 6 m/S 731 mmHg 95%
    14:00 +4°C° 1.4 mm 6 m/S 731 mmHg 96%
    15:00 +3°C° 2.4 mm 7 m/S 731 mmHg 96%
    16:00 +2°C° 2.4 mm 8 m/S 731 mmHg 95%
    17:00 +2°C° 2.4 mm 9 m/S 731 mmHg 95%
    18:00 +1°C° 1.6 mm 10 m/S 732 mmHg 94%
    19:00 +1°C° 1.6 mm 10 m/S 732 mmHg 93%
    20:00 -1°C° 1.6 mm 11 m/S 733 mmHg 93%
    21:00 -1°C° 1.4 mm 11 m/S 733 mmHg 92%
    22:00 -1°C° 1.4 mm 11 m/S 734 mmHg 92%
    23:00 -1°C° 1.4 mm 11 m/S 734 mmHg 91%

    übermorgen, 12 Dezember, Mittwoch

    Zeit Temperatur Niederschläge Wind Luftdruck Luftfeuchtigkeit
    00:00 -1°C° 0.7 mm 11 m/S 735 mmHg 91%
    01:00 -1°C° 0.7 mm 11 m/S 736 mmHg 90%
    02:00 +1°C° 0.7 mm 11 m/S 737 mmHg 90%
    03:00 +1°C° 0.1 mm 10 m/S 737 mmHg 88%
    04:00 +1°C° 0.1 mm 9 m/S 737 mmHg 86%
    05:00 +1°C° 0.1 mm 9 m/S 738 mmHg 84%
    06:00 +1°C° 0 mm 8 m/S 738 mmHg 84%
    07:00 +2°C° 0 mm 7 m/S 739 mmHg 85%
    08:00 0°C° 0 mm 7 m/S 739 mmHg 85%
    09:00 +2°C° 0 mm 7 m/S 740 mmHg 83%
    10:00 +2°C° 0 mm 7 m/S 740 mmHg 81%
    11:00 +3°C° 0 mm 7 m/S 740 mmHg 79%
    12:00 +3°C° 0 mm 7 m/S 740 mmHg 78%
    13:00 +3°C° 0 mm 7 m/S 741 mmHg 76%
    14:00 +3°C° 0 mm 7 m/S 741 mmHg 75%
    15:00 +2°C° 0 mm 7 m/S 741 mmHg 77%
    16:00 +1°C° 0 mm 6 m/S 741 mmHg 78%
    17:00 +1°C° 0 mm 5 m/S 742 mmHg 80%
    18:00 +1°C° 0 mm 5 m/S 742 mmHg 80%
    19:00 0°C° 0 mm 5 m/S 742 mmHg 80%
    20:00 0°C° 0 mm 5 m/S 743 mmHg 80%
    21:00 0°C° 0.1 mm 5 m/S 743 mmHg 81%
    22:00 0°C° 0.1 mm 5 m/S 743 mmHg 81%
    23:00 0°C° 0.1 mm 5 m/S 743 mmHg 81%

    13 Dezember, Donnerstag

    Zeit Temperatur Niederschläge Wind Luftdruck Luftfeuchtigkeit
    00:00 0°C° 0.1 mm 5 m/S 743 mmHg 81%
    01:00 0°C° 0.1 mm 5 m/S 743 mmHg 81%
    02:00 0°C° 0.1 mm 5 m/S 744 mmHg 80%
    03:00 0°C° 0.1 mm 5 m/S 744 mmHg 80%
    04:00 0°C° 0.1 mm 5 m/S 744 mmHg 79%
    05:00 0°C° 0.1 mm 5 m/S 744 mmHg 79%
    06:00 0°C° 0.1 mm 5 m/S 744 mmHg 79%
    07:00 0°C° 0.1 mm 5 m/S 745 mmHg 79%
    08:00 0°C° 0.1 mm 4 m/S 745 mmHg 79%
    09:00 +1°C° 0.2 mm 5 m/S 745 mmHg 76%
    10:00 +2°C° 0.2 mm 5 m/S 745 mmHg 74%
    11:00 +3°C° 0.2 mm 6 m/S 745 mmHg 71%
    12:00 +3°C° 0.3 mm 6 m/S 745 mmHg 71%
    13:00 +3°C° 0.3 mm 6 m/S 745 mmHg 71%
    14:00 +3°C° 0.3 mm 7 m/S 745 mmHg 71%
    15:00 +2°C° 0.2 mm 6 m/S 745 mmHg 73%
    16:00 +2°C° 0.2 mm 6 m/S 745 mmHg 75%
    17:00 +1°C° 0.2 mm 6 m/S 745 mmHg 77%
    18:00 +1°C° 0.1 mm 5 m/S 745 mmHg 78%
    19:00 +1°C° 0.1 mm 5 m/S 745 mmHg 78%
    20:00 0°C° 0.1 mm 5 m/S 746 mmHg 79%
    21:00 +1°C° 0.1 mm 5 m/S 746 mmHg 79%
    22:00 +1°C° 0.1 mm 4 m/S 746 mmHg 79%
    23:00 +1°C° 0.1 mm 4 m/S 746 mmHg 80%

    14 Dezember, Freitag

    Zeit Temperatur Niederschläge Wind Luftdruck Luftfeuchtigkeit
    00:00 +1°C° 0.1 mm 4 m/S 746 mmHg 81%
    01:00 +1°C° 0.1 mm 4 m/S 746 mmHg 81%
    02:00 +2°C° 0.1 mm 3 m/S 746 mmHg 82%
    03:00 +1°C° 0.1 mm 3 m/S 746 mmHg 83%
    04:00 +1°C° 0.1 mm 3 m/S 746 mmHg 83%
    05:00 +1°C° 0.1 mm 3 m/S 746 mmHg 83%
    06:00 +1°C° 0 mm 3 m/S 746 mmHg 82%
    07:00 +1°C° 0 mm 3 m/S 747 mmHg 81%
    08:00 +3°C° 0 mm 2 m/S 747 mmHg 80%
    09:00 +3°C° 0 mm 3 m/S 747 mmHg 76%
    10:00 +4°C° 0 mm 3 m/S 748 mmHg 72%
    11:00 +5°C° 0 mm 3 m/S 748 mmHg 68%
    12:00 +5°C° 0 mm 3 m/S 748 mmHg 67%
    13:00 +4°C° 0 mm 3 m/S 749 mmHg 66%
    14:00 +4°C° 0 mm 3 m/S 749 mmHg 65%
    15:00 +4°C° 0 mm 3 m/S 749 mmHg 69%
    16:00 +3°C° 0 mm 3 m/S 749 mmHg 73%
    17:00 +3°C° 0 mm 2 m/S 750 mmHg 76%
    18:00 +2°C° 0 mm 2 m/S 750 mmHg 78%
    19:00 +2°C° 0 mm 2 m/S 750 mmHg 80%
    20:00 +2°C° 0 mm 2 m/S 751 mmHg 82%
    21:00 +2°C° 0 mm 2 m/S 751 mmHg 83%
    22:00 +1°C° 0 mm 2 m/S 751 mmHg 84%
    23:00 +1°C° 0 mm 2 m/S 751 mmHg 85%

    15 Dezember, Samstag

    Zeit Temperatur Niederschläge Wind Luftdruck Luftfeuchtigkeit
    00:00 +1°C° 0 mm 2 m/S 752 mmHg 86%
    01:00 +1°C° 0 mm 2 m/S 752 mmHg 87%
    02:00 +1°C° 0 mm 2 m/S 752 mmHg 87%
    03:00 +1°C° 0 mm 2 m/S 752 mmHg 88%
    04:00 +1°C° 0 mm 2 m/S 752 mmHg 88%
    05:00 +1°C° 0 mm 2 m/S 752 mmHg 89%
    06:00 +1°C° 0 mm 2 m/S 752 mmHg 89%
    07:00 +1°C° 0 mm 2 m/S 753 mmHg 90%
    08:00 +1°C° 0 mm 2 m/S 753 mmHg 90%
    09:00 +2°C° 0 mm 2 m/S 753 mmHg 85%
    10:00 +2°C° 0 mm 2 m/S 754 mmHg 80%
    11:00 +3°C° 0 mm 2 m/S 754 mmHg 76%
    12:00 +3°C° 0 mm 2 m/S 754 mmHg 75%
    13:00 +3°C° 0 mm 2 m/S 754 mmHg 74%
    14:00 +3°C° 0 mm 2 m/S 754 mmHg 73%
    15:00 +3°C° 0 mm 2 m/S 754 mmHg 76%
    16:00 +2°C° 0 mm 2 m/S 754 mmHg 80%
    17:00 0°C° 0 mm 3 m/S 754 mmHg 84%
    18:00 0°C° 0 mm 3 m/S 754 mmHg 86%
    19:00 0°C° 0 mm 3 m/S 755 mmHg 88%
    20:00 -1°C° 0 mm 3 m/S 755 mmHg 90%
    21:00 -1°C° 0 mm 3 m/S 755 mmHg 90%
    22:00 -1°C° 0 mm 3 m/S 755 mmHg 91%
    23:00 -1°C° 0 mm 3 m/S 755 mmHg 92%
    Mehr zeigen